Showing default

O3B FM17, 44114

Orbit data source: Space-Track

O3B FM17, 44114 is a payload satellite owned by O3B SES (JE) that was launched on Thu, 04 Apr 2019 UTC via a SOYUZ-ST-B launch vehicle from the French Guiana (FRGUI). Payload-class satellites include a variety of spacecraft equipped with specific instruments for various scientific and technological missions. These include communications satellites like Starlink; space stations such as the ISS; scientific satellites like the Hubble; Earth observation satellites from companies like Planet Labs, Umbra, and HawkEye 360; GPS; miniature CubeSats for education and research; and military/defense satellites.

Loading next visibility...
Identifier
44114, 2019-020C
Orbit
Active
Last TLE update
5 hours ago
Origin
Manufacturer
Thales Alenia
Mission
Operational Commercial Communications
Bus & Motor
PRISMA?, LS-400 AOCS?
Mass
700 kg wet, ~500 kg dry
Launch date (UTC)
2019-04-04 (6 years ago)
Launch vehicle
SOYUZ-ST-B
Launch site
French Guiana (FRGUI)
Object type
Payload
Rocket body
Debris
Shape & HBR
Trap Box + 2 Pan, 12 m
Radar Cross Section
21.980 m², Large (>1 m²)

Expand to show TLE details & history

TLE from 5 hours ago
0 O3B FM17
1 44114U 19020C   25190.10697063 -.00000016  00000-0  00000+0 0  9992
2 44114   0.0679 356.8547 0003107 107.1608 256.0188  5.00115285114496
Epoch: 2025-07-09T02:34Z
TLE epoch observation values (Epoch: 2025-07-09T02:34:02.262Z)
Latitude
0.00183°
Longitude
34.19822°
Altitude
8,065.462 km
Speed
5.254 km/s
True Right ascension
00h 00m 00s
True Declination
0° 00' 07"
Sunlit
Object was in daylight at epoch
Visualization orbit readout
Latitude
0.02245°
Longitude
50.64671°
Altitude
8,064.19 km
Speed
5.254 km/s
Apparent Right ascension
02h 23m 53s
Apparent Declination
-15° 42' 51"
Sunlit
Object is in daylight
Visualization observer readout
Local Sidereal Time
19:44:33
Azimuth
96.152° ESE
Elevation
-17.451°
Doppler factor
1
Orbital elements
Apogee altitude
8,073.442 km
Perigee altitude
8,064.464 km
Semi-major axis
14,447.09 km
Eccentricity
0.00031
Inclination
0.0679°
RAAN
356.8547°
Arg. of periapsis
107.1608°
True anomaly
Unknown
Mean anomaly
256.0188°
Eccentric anomaly
Unknown
Mean motion
1.24989 °/min
Orbital period
288.02 mins
BSTAR
0
Loading maneuver chart data...
Loading SW <> Apogee altitude chart data...
Loading historical data...
Loading historical data...
Loading historical data...
Loading historical data...
Loading historical data...
Loading historical data...
Loading historical data...
Other satellites on launch #20 in the year 2019 (2019-04-04 UTC)

O3B FM17 Visibility forecast

Observer location: undefined°, undefined°

Span
Click to sort rows by Start time (UTC) header in descending order
Start Az.
Max El. time (UTC)
Max El. Az.
Max El.
End time (UTC)
End Az.
79 mins2025-07-09 11:35:01.960Z232.278° WSW2025-07-09 12:15:01.960Z179.516° S24.38°2025-07-09 12:54:01.960Z127.99° SE
78 mins2025-07-09 17:36:01.960Z231.374° WSW2025-07-09 18:15:01.960Z179.468° S24.43°2025-07-09 18:54:01.960Z127.956° SE
78 mins2025-07-09 23:36:01.960Z231.318° WSW2025-07-10 00:15:01.960Z179.406° S24.357°2025-07-10 00:54:01.960Z128.029° SE
78 mins2025-07-10 05:36:01.960Z231.232° WSW2025-07-10 06:15:01.960Z179.456° S24.308°2025-07-10 06:54:01.960Z128.062° SE
|